Location: Unspecified
(0.0000°N, 0.0000°E)
Time: 04:30:28
(UTC+00:00)

Starlink (trailer) - Visible Passes

Search period start: 27 June 2019 00:00
Search period end: 07 July 2019 00:00
Orbit: 550 x 554 km, 53.0° (Epoch: 24 June)

Date Brightness Start Highest point End Pass type
(mag) Time Alt. Az. Time Alt. Az. Time Alt. Az.
27 Jun 6.1 19:40:27 10° W 19:42:54 15° SW 19:44:58 11° SSW visible
02 Jul 6.1 04:02:10 14° SE 04:02:48 14° SE 04:05:03 10° E visible
03 Jul 5.7 03:58:22 22° ESE 03:58:22 22° ESE 04:01:22 10° ENE visible
03 Jul 5.3 05:34:36 10° W 05:37:30 18° NW 05:40:25 10° N visible
04 Jul 5.4 03:54:30 30° E 03:54:30 30° E 03:57:11 10° ENE visible
04 Jul 5.8 05:31:25 10° WNW 05:32:48 11° NW 05:34:10 10° NW visible
05 Jul 5.5 03:50:37 28° NE 03:50:37 28° NE 03:52:43 10° NE visible
06 Jul 6.0 03:46:39 20° NNE 03:46:39 20° NNE 03:48:01 10° NNE visible
